Temp
12 12 12 12 11 11 11 11 10 10 10 9 9 9 9 10 10 10 10 10 10 10 9 9 8 8 8 7 7 7 7 7 7 7 6 6 6 5 5 5 4 4 4 4 4 3 3 3 3 2 2 2 2 2 1 1 1 1 0 0 -0 -0 -0 -0 -0 -1 -1 -1 -1
13 12 12 12 12 11 11 11 11 10 10 9 9 9 10 10 10 10 10 10 10 10 9 9 8 8 8 7 7 7 7 7 7 7 6 6 6 5 5 5 4 4 4 4 3 3 3 3 2 2 2 2 2 1 1 1 1 1 0 -0 -0 -0 -0 -1 -1 -1 -1 -1 -1
13 12 12 12 12 12 11 11 11 10 10 9 9 10 10 10 10 10 10 10 10 9 9 9 8 8 8 7 7 7 7 7 7 6 6 6 5 5 5 4 4 4 4 3 3 3 3 3 2 2 2 2 1 1 1 1 1 0 0 -0 -0 -0 -1 -1 -1 -1 -1 -1 -1
13 12 12 12 11 11 12 11 11 11 10 10 10 10 11 11 10 10 10 10 10 9 9 9 8 8 7 7 7 7 7 7 7 6 6 5 5 5 4 4 4 4 4 3 3 3 3 3 2 2 2 2 1 1 0 0 0 0 -0 -0 -0 -1 -1 -1 -1 -1 -1 -1 -1
13 13 12 12 11 11 11 11 11 11 11 10 11 11 11 11 11 10 10 10 10 9 9 8 8 8 7 7 7 7 7 7 6 6 6 5 5 4 4 4 4 4 3 3 3 3 3 3 2 2 2 1 1 1 0 0 0 -0 -0 -0 -1 -1 -1 -1 -1 -1 -2 -2 -2
13 13 12 11 11 11 11 11 11 11 11 11 11 11 11 11 11 10 10 10 9 9 9 8 8 8 7 7 7 7 7 6 6 6 5 5 5 4 4 4 4 3 3 3 3 3 3 3 2 2 1 1 1 1 0 0 -0 -0 -1 -1 -1 -1 -1 -1 -1 -2 -2 -2 -2
13 12 12 11 11 11 11 11 11 11 11 11 11 11 11 11 10 10 10 10 9 9 8 8 8 7 7 7 7 7 6 6 6 6 5 5 5 4 4 4 4 4 3 3 3 3 3 2 2 1 1 1 1 1 0 0 -0 -0 -1 -1 -1 -1 -1 -1 -1 -2 -2 -2 -2
13 12 12 12 12 12 11 12 12 11 11 11 11 11 11 11 10 10 10 9 9 9 8 8 7 7 7 7 7 7 7 6 6 6 5 5 4 4 4 4 4 4 4 3 3 3 3 2 2 1 1 1 1 0 0 0 -0 -0 -1 -1 -1 -1 -1 -1 -1 -2 -2 -2 -2
12 12 12 12 12 12 12 12 12 11 11 11 11 11 10 10 10 10 9 9 9 9 8 8 7 7 7 7 7 7 6 6 6 5 5 5 4 4 4 4 4 4 4 3 3 3 2 2 2 1 1 1 0 0 -0 -0 -0 -0 -1 -1 -1 -1 -1 -1 -2 -2 -2 -2 -2
12 12 12 12 12 11 11 11 11 11 11 11 11 10 10 10 10 9 9 9 9 8 8 8 7 7 7 7 7 7 6 6 6 5 5 4 4 4 4 4 4 4 3 3 3 2 2 2 1 1 1 0 0 0 -0 -0 -0 -1 -1 -1 -1 -1 -2 -2 -2 -2 -2 -2 -3
12 12 12 12 11 11 11 11 11 11 11 10 10 10 10 10 9 9 9 9 9 8 8 8 7 7 7 7 7 7 7 6 6 5 5 4 4 4 4 4 4 4 3 3 3 2 2 2 1 1 1 0 0 0 -0 -0 -0 -1 -1 -1 -1 -2 -2 -2 -2 -2 -2 -2 -3
12 11 11 11 11 11 11 11 11 11 10 10 10 10 9 9 9 9 9 9 8 8 8 7 7 7 7 7 7 7 6 6 5 5 4 4 4 4 4 4 3 3 3 3 2 2 2 1 1 1 0 0 0 -0 -0 -0 -1 -1 -1 -1 -1 -2 -2 -2 -2 -2 -2 -2 -3
11 11 11 11 11 11 11 11 11 11 10 10 10 9 9 9 9 8 8 8 8 8 7 7 7 7 7 7 7 7 6 6 5 4 4 4 4 3 3 3 3 3 3 2 2 2 1 1 1 1 1 0 0 -0 -0 -0 -1 -1 -1 -1 -1 -2 -2 -2 -2 -2 -2 -2 -2
11 11 11 11 11 11 11 11 11 10 10 10 9 9 9 9 8 8 8 8 8 7 7 7 7 7 7 7 7 6 6 5 5 4 4 4 3 3 3 3 3 2 2 2 2 2 1 1 1 1 1 0 0 -0 -0 -0 -1 -1 -1 -1 -1 -2 -2 -2 -2 -2 -2 -2 -2
10 11 11 11 11 11 11 11 10 10 10 10 10 9 9 8 8 8 8 8 7 7 7 7 7 7 7 6 6 6 5 5 4 4 3 3 3 3 2 2 2 2 2 2 2 2 1 1 1 1 0 0 -0 -0 -0 -1 -1 -1 -1 -1 -2 -2 -2 -2 -2 -2 -2 -3 -3
11 11 11 12 12 11 11 10 10 10 10 10 10 9 9 8 8 8 8 7 7 7 6 7 7 6 6 6 6 5 5 4 4 3 3 3 3 2 2 2 2 2 2 2 2 1 1 1 1 1 0 0 -0 -0 -1 -1 -1 -1 -1 -1 -2 -2 -2 -2 -2 -3 -3 -3 -3
11 11 12 12 11 11 11 10 10 10 10 9 9 9 9 8 8 8 8 7 7 6 6 6 6 6 6 6 6 5 5 4 4 3 3 3 3 2 2 2 2 2 2 1 1 1 1 1 1 1 0 0 -0 -0 -1 -1 -1 -1 -1 -1 -1 -2 -2 -2 -2 -2 -2 -2 -3
11 12 12 11 11 11 10 10 10 10 10 9 9 9 8 8 8 8 8 7 7 7 7 6 6 6 6 6 5 5 4 4 4 4 3 3 2 2 2 1 1 1 1 1 1 1 1 1 1 1 0 0 0 -0 -0 -1 -1 -1 -1 -1 -1 -2 -2 -2 -2 -2 -2 -3 -3
12 12 11 11 11 11 10 10 10 10 10 10 9 9 8 9 9 9 8 7 7 7 6 6 6 6 6 5 5 5 4 4 4 4 3 3 2 1 1 1 1 1 1 1 1 1 1 1 1 0 0 0 0 -0 -0 -1 -1 -1 -1 -1 -2 -2 -2 -2 -2 -2 -2 -3 -3
11 11 11 11 11 10 10 10 10 10 10 9 9 9 9 9 9 9 8 7 7 6 6 6 6 6 5 5 5 4 4 4 4 3 3 2 1 1 1 1 1 1 1 1 1 1 1 1 1 0 0 0 -0 -0 -0 -0 -1 -1 -1 -2 -2 -2 -2 -2 -2 -2 -3 -3 -3
11 10 10 10 10 10 9 9 9 9 9 9 9 9 9 9 9 8 8 7 7 6 6 6 6 6 5 5 5 4 4 4 4 3 2 2 1 1 1 1 1 1 1 1 1 1 1 0 0 0 0 0 -0 -0 -0 -1 -1 -1 -1 -2 -2 -2 -2 -2 -2 -3 -3 -3 -3
11 10 9 9 9 9 9 8 8 8 8 8 8 9 9 9 8 8 7 7 6 6 6 6 6 5 5 5 4 4 4 3 3 3 2 2 1 1 1 1 1 1 1 1 1 1 1 0 0 0 0 0 -0 -0 -0 -1 -1 -1 -2 -2 -2 -2 -2 -2 -3 -3 -3 -3 -3
10 10 9 9 9 8 8 8 8 8 8 8 8 8 8 8 8 7 7 7 6 6 6 6 5 5 5 5 4 4 4 3 3 2 2 2 1 1 1 1 1 1 1 1 1 1 0 0 0 0 0 0 -0 -0 -0 -1 -1 -2 -2 -2 -2 -2 -2 -3 -3 -3 -3 -3 -4
10 9 9 8 8 8 7 7 7 8 8 8 8 8 8 7 7 7 6 6 6 6 6 5 5 5 5 4 4 4 3 3 3 2 2 1 1 1 1 1 1 1 1 1 1 1 0 0 0 0 0 0 -0 -0 -1 -1 -1 -2 -2 -2 -3 -3 -3 -3 -3 -3 -3 -4 -4
10 9 9 8 7 6 6 7 7 8 8 8 8 8 7 7 7 6 6 6 6 6 5 5 5 5 4 4 4 3 3 3 2 2 2 1 1 1 1 1 1 1 1 1 1 1 0 0 0 0 0 -0 -0 -1 -1 -1 -1 -2 -2 -2 -3 -3 -3 -3 -3 -3 -3 -4 -4
9 9 8 8 7 6 7 7 7 8 8 8 8 7 7 7 6 6 6 6 6 5 5 5 5 4 4 4 4 3 3 2 2 2 1 1 1 1 1 1 1 1 1 1 1 0 0 0 0 0 0 -0 -1 -1 -1 -1 -1 -2 -2 -2 -3 -3 -3 -3 -3 -4 -4 -4 -4
9 9 8 8 7 7 7 7 7 7 8 7 7 7 7 7 6 6 6 6 5 5 5 5 4 4 4 4 3 3 3 2 2 2 1 1 1 1 1 1 1 1 1 1 0 0 0 0 0 0 0 -0 -1 -1 -1 -2 -2 -2 -2 -2 -3 -3 -3 -3 -4 -4 -4 -4 -4
9 9 9 8 8 8 7 7 7 7 7 7 7 7 7 6 6 6 6 5 5 5 5 4 4 4 4 4 3 3 2 2 2 1 1 1 1 1 1 1 1 1 1 1 0 0 0 0 0 0 0 -0 -1 -1 -1 -2 -2 -2 -2 -2 -3 -3 -3 -3 -4 -4 -4 -4 -4
9 9 9 8 8 7 7 7 7 7 7 7 7 7 7 6 6 6 5 5 5 5 5 4 4 4 4 4 3 3 2 2 1 1 1 1 1 1 1 1 1 1 1 0 0 0 0 0 0 0 0 -0 -1 -1 -2 -2 -2 -3 -2 -3 -3 -3 -3 -4 -4 -4 -4 -4 -4
9 9 8 8 7 7 7 7 7 7 7 7 7 7 6 6 6 6 5 5 5 5 5 5 4 4 4 3 3 2 2 2 1 1 1 1 1 1 1 1 0 0 0 0 0 0 0 0 0 0 -0 -0 -1 -1 -2 -2 -3 -3 -3 -3 -3 -3 -3 -4 -4 -4 -4 -4 -4
8 8 8 7 7 7 7 7 7 7 7 7 7 7 6 6 6 5 5 5 5 5 5 5 4 4 4 3 3 2 2 1 1 1 1 1 1 1 1 1 0 -0 -0 0 0 0 0 0 0 0 -0 -1 -1 -1 -2 -2 -3 -3 -3 -3 -3 -3 -4 -4 -4 -4 -4 -4 -4
7 7 7 7 7 7 7 7 7 7 7 7 7 6 6 6 5 5 5 5 5 5 5 4 4 4 3 3 2 2 2 1 1 1 1 1 1 1 1 1 0 -0 -0 0 0 0 0 0 0 -0 -0 -1 -1 -1 -2 -2 -3 -3 -3 -3 -3 -4 -4 -4 -4 -4 -4 -4 -4
7 7 7 7 6 6 6 7 7 7 7 6 6 6 6 5 5 5 5 5 5 5 4 4 4 3 3 2 2 2 1 1 1 1 1 1 1 1 1 0 -0 -0 -0 0 0 0 0 0 -0 -0 -1 -1 -1 -2 -2 -2 -3 -3 -3 -3 -4 -4 -4 -4 -4 -4 -4 -4 -4
6 6 6 6 6 6 6 7 7 7 6 6 6 6 5 5 5 5 5 5 5 4 4 4 3 3 3 2 2 1 1 1 1 1 1 1 1 1 0 0 -0 -0 -0 0 0 0 0 -0 -0 -1 -1 -1 -2 -2 -2 -3 -3 -3 -3 -3 -4 -4 -4 -4 -4 -4 -4 -4 -4
6 6 6 6 6 6 6 7 7 6 6 6 6 5 5 5 5 5 5 5 4 4 4 3 3 3 2 2 1 1 1 1 1 1 1 1 1 0 0 0 -0 -0 -0 0 0 0 0 -0 -0 -1 -1 -1 -2 -2 -2 -3 -3 -3 -3 -3 -4 -4 -4 -4 -4 -4 -4 -4 -4
6 6 6 6 6 6 6 6 6 6 6 6 5 5 5 5 5 5 5 4 4 4 3 3 3 2 2 2 1 1 1 1 1 1 1 1 1 0 0 -0 -0 -0 -0 -0 0 0 -0 -0 -1 -1 -1 -2 -2 -2 -2 -3 -3 -3 -3 -3 -4 -4 -4 -4 -4 -4 -4 -4 -4
6 6 6 6 6 6 6 6 6 6 5 5 5 5 5 5 5 4 4 4 3 3 3 3 2 2 2 1 1 1 1 1 1 1 1 1 1 0 0 -0 -0 -0 -1 -0 -0 -0 -0 -1 -1 -1 -2 -2 -2 -2 -3 -3 -3 -3 -3 -3 -4 -4 -4 -4 -4 -4 -4 -4 -4
6 6 6 6 6 6 6 6 6 5 5 5 5 5 5 5 4 4 4 3 3 3 2 2 2 2 1 1 1 1 1 1 1 1 1 0 0 0 0 0 -0 -0 -1 -0 -0 -0 -0 -1 -1 -2 -2 -2 -2 -3 -3 -3 -3 -3 -3 -3 -4 -4 -4 -4 -4 -4 -4 -4 -4
6 6 6 6 6 6 6 5 5 5 5 5 5 5 4 4 4 4 3 3 3 2 2 2 2 1 1 1 1 1 1 1 1 1 0 0 0 0 0 0 -0 -0 -1 -1 -0 -0 -1 -1 -1 -2 -2 -2 -3 -3 -3 -3 -3 -3 -3 -4 -4 -4 -4 -4 -4 -4 -4 -4 -4
5 5 5 5 5 5 5 5 5 5 5 5 5 4 4 4 4 3 3 3 2 2 2 2 1 1 1 1 1 1 1 1 0 0 0 0 0 0 0 0 0 -0 -1 -1 -1 -0 -1 -1 -1 -2 -2 -3 -3 -3 -3 -3 -3 -4 -4 -4 -4 -4 -4 -4 -4 -4 -4 -4 -4
5 5 5 5 5 5 5 5 5 5 5 4 4 3 3 3 3 3 2 2 2 2 2 2 1 1 1 1 1 1 1 0 0 0 0 0 0 0 0 0 0 0 -0 -1 -1 -1 -1 -1 -1 -2 -2 -3 -3 -3 -3 -3 -4 -4 -4 -4 -4 -4 -4 -4 -4 -4 -4 -4 -4
Height
1542 1542 1543 1544 1545 1545 1546 1547 1548 1548 1549 1550 1551 1551 1551 1551 1552 1553 1555 1555 1556 1557 1558 1559 1560 1560 1560 1561 1561 1562 1562 1562 1562 1562 1562 1562 1562 1561 1561 1561 1560 1560 1560 1560 1560 1560 1560 1560 1560 1560 1560 1560 1560 1560 1560 1560 1560 1560 1560 1560 1560 1560 1560 1559 1559 1559 1559 1559 1558
1540 1541 1542 1542 1544 1545 1545 1546 1546 1547 1548 1549 1549 1549 1550 1550 1551 1552 1554 1555 1555 1556 1557 1558 1558 1559 1559 1560 1560 1560 1560 1560 1560 1560 1560 1560 1560 1560 1560 1560 1560 1560 1559 1559 1560 1560 1560 1560 1560 1559 1559 1559 1559 1559 1559 1559 1559 1559 1559 1559 1559 1559 1559 1558 1558 1558 1558 1557 1557
1539 1540 1540 1541 1542 1543 1544 1544 1545 1545 1546 1547 1547 1548 1549 1550 1550 1551 1553 1554 1555 1555 1556 1556 1557 1557 1558 1558 1559 1559 1559 1559 1560 1560 1560 1559 1559 1559 1559 1559 1558 1558 1558 1559 1559 1559 1559 1559 1559 1558 1558 1558 1558 1558 1558 1558 1558 1558 1558 1558 1558 1558 1557 1557 1557 1557 1557 1556 1556
1537 1538 1539 1540 1540 1541 1542 1543 1543 1544 1545 1546 1546 1547 1548 1549 1550 1550 1551 1552 1553 1554 1554 1555 1555 1555 1556 1557 1557 1557 1558 1558 1558 1558 1558 1558 1558 1558 1558 1558 1557 1557 1557 1557 1558 1558 1558 1558 1558 1557 1557 1557 1557 1558 1557 1557 1557 1557 1557 1557 1557 1557 1556 1556 1556 1555 1555 1555 1554
1536 1536 1537 1538 1539 1540 1541 1541 1542 1543 1544 1544 1545 1545 1546 1547 1548 1549 1550 1551 1551 1552 1552 1553 1554 1554 1555 1555 1556 1556 1556 1557 1557 1557 1557 1557 1557 1557 1557 1556 1556 1556 1556 1556 1557 1557 1557 1557 1556 1556 1556 1556 1556 1557 1557 1556 1556 1556 1556 1556 1555 1555 1555 1555 1554 1554 1553 1553 1553
1534 1535 1536 1537 1538 1539 1540 1540 1541 1541 1542 1543 1544 1544 1545 1546 1547 1548 1548 1549 1550 1550 1551 1552 1552 1553 1554 1554 1555 1555 1555 1555 1556 1556 1556 1556 1556 1555 1555 1555 1555 1555 1555 1555 1555 1555 1555 1555 1555 1555 1555 1555 1555 1555 1555 1555 1555 1555 1555 1555 1554 1554 1553 1553 1553 1552 1552 1552 1551
1533 1534 1535 1536 1537 1538 1538 1539 1539 1540 1541 1541 1542 1543 1544 1545 1545 1546 1547 1548 1548 1549 1550 1550 1551 1552 1553 1553 1554 1554 1555 1555 1555 1555 1555 1555 1555 1554 1554 1554 1554 1554 1554 1554 1554 1554 1554 1554 1554 1554 1554 1554 1554 1554 1554 1554 1554 1554 1554 1554 1553 1553 1552 1552 1551 1551 1550 1550 1550
1532 1533 1534 1535 1535 1536 1537 1537 1538 1539 1539 1540 1541 1542 1542 1543 1544 1545 1545 1546 1547 1547 1548 1549 1550 1550 1551 1552 1553 1553 1554 1554 1554 1554 1554 1554 1553 1553 1553 1553 1553 1553 1553 1553 1553 1553 1553 1553 1553 1553 1553 1553 1553 1553 1553 1552 1553 1553 1553 1553 1552 1551 1550 1550 1549 1549 1549 1548 1548
1531 1532 1533 1533 1534 1535 1535 1536 1536 1537 1538 1539 1540 1540 1541 1542 1543 1543 1544 1545 1545 1546 1547 1548 1549 1550 1550 1551 1552 1552 1553 1553 1553 1553 1553 1553 1552 1552 1552 1551 1551 1551 1552 1552 1552 1552 1551 1551 1552 1552 1552 1551 1552 1552 1551 1551 1551 1551 1551 1551 1550 1550 1549 1548 1547 1547 1547 1547 1546
1529 1530 1531 1532 1532 1533 1534 1534 1535 1536 1537 1538 1539 1539 1540 1540 1541 1542 1542 1543 1544 1544 1545 1546 1547 1548 1549 1550 1551 1551 1551 1552 1552 1552 1551 1551 1551 1551 1551 1550 1550 1550 1550 1550 1550 1550 1550 1550 1550 1550 1550 1550 1551 1550 1550 1550 1550 1550 1550 1550 1549 1548 1547 1547 1546 1546 1546 1545 1545
1528 1528 1529 1530 1531 1532 1532 1533 1534 1535 1536 1537 1538 1538 1539 1540 1540 1540 1541 1541 1542 1543 1544 1545 1546 1547 1548 1548 1549 1550 1550 1550 1550 1550 1550 1550 1550 1550 1550 1550 1550 1550 1550 1549 1549 1549 1549 1549 1549 1549 1549 1550 1550 1549 1549 1548 1548 1548 1548 1548 1547 1547 1546 1546 1546 1545 1545 1545 1544
1526 1527 1528 1528 1529 1530 1531 1532 1533 1534 1535 1536 1537 1537 1538 1539 1539 1540 1540 1540 1541 1542 1543 1544 1545 1545 1546 1547 1547 1547 1548 1548 1549 1549 1549 1549 1549 1549 1549 1549 1549 1549 1549 1548 1548 1548 1548 1548 1548 1548 1548 1548 1548 1548 1547 1547 1547 1547 1546 1546 1546 1546 1545 1545 1545 1544 1544 1543 1542
1525 1525 1526 1527 1528 1529 1530 1530 1532 1533 1534 1535 1536 1537 1537 1538 1539 1539 1539 1539 1540 1541 1542 1543 1544 1545 1545 1545 1545 1546 1546 1547 1547 1548 1548 1548 1548 1548 1549 1549 1548 1548 1548 1547 1547 1547 1547 1547 1547 1547 1547 1547 1547 1546 1546 1546 1546 1545 1545 1545 1545 1545 1544 1544 1543 1542 1542 1541 1541
1523 1524 1524 1525 1526 1527 1528 1530 1531 1532 1533 1534 1535 1536 1536 1537 1538 1539 1539 1539 1540 1540 1541 1542 1543 1543 1544 1544 1545 1545 1545 1546 1546 1547 1547 1547 1547 1548 1548 1548 1548 1547 1547 1546 1546 1546 1546 1546 1546 1546 1546 1546 1545 1545 1545 1545 1545 1545 1544 1544 1543 1543 1542 1542 1541 1540 1540 1540 1539
1521 1521 1522 1523 1525 1526 1527 1529 1530 1531 1531 1533 1534 1535 1536 1537 1537 1538 1538 1539 1540 1540 1541 1541 1542 1542 1543 1544 1544 1544 1545 1545 1545 1545 1546 1546 1546 1546 1547 1547 1547 1546 1546 1545 1545 1545 1545 1545 1545 1545 1545 1545 1544 1544 1543 1543 1543 1543 1543 1542 1542 1541 1541 1540 1540 1539 1538 1538 1537
1519 1520 1521 1522 1524 1525 1526 1527 1528 1529 1530 1532 1533 1534 1535 1536 1536 1537 1537 1538 1539 1540 1540 1541 1541 1542 1542 1543 1543 1543 1543 1544 1544 1544 1544 1545 1545 1545 1545 1545 1545 1545 1545 1544 1544 1543 1543 1543 1543 1543 1543 1543 1543 1542 1542 1541 1541 1541 1541 1540 1540 1540 1539 1539 1538 1538 1537 1536 1536
1517 1518 1520 1521 1523 1524 1525 1525 1527 1528 1529 1530 1532 1533 1534 1534 1535 1535 1536 1538 1538 1539 1540 1540 1540 1541 1541 1541 1541 1541 1542 1542 1542 1542 1543 1543 1543 1543 1543 1544 1544 1544 1544 1543 1543 1542 1542 1541 1541 1541 1541 1541 1541 1541 1540 1540 1540 1540 1539 1539 1538 1538 1537 1537 1537 1536 1535 1535 1534
1516 1518 1519 1520 1521 1522 1523 1524 1525 1526 1527 1528 1529 1530 1531 1531 1532 1533 1535 1536 1537 1538 1539 1539 1539 1540 1540 1540 1540 1540 1540 1540 1540 1541 1541 1541 1542 1542 1542 1543 1543 1543 1543 1542 1541 1541 1540 1540 1540 1540 1540 1540 1540 1539 1539 1539 1538 1538 1537 1537 1537 1536 1536 1535 1535 1534 1534 1533 1532
1515 1517 1518 1519 1520 1521 1522 1523 1524 1524 1525 1525 1525 1526 1527 1527 1529 1530 1532 1534 1535 1536 1537 1537 1538 1538 1538 1539 1539 1539 1539 1540 1540 1540 1540 1540 1540 1541 1541 1542 1542 1541 1541 1541 1540 1540 1539 1539 1539 1538 1538 1538 1538 1537 1537 1537 1536 1536 1536 1535 1535 1535 1534 1534 1533 1533 1532 1531 1531
1515 1515 1516 1517 1519 1520 1521 1522 1523 1523 1523 1523 1523 1523 1524 1525 1526 1528 1530 1532 1533 1534 1535 1535 1536 1536 1537 1537 1538 1538 1538 1539 1539 1539 1539 1539 1539 1540 1540 1540 1540 1540 1540 1539 1539 1538 1538 1537 1537 1537 1537 1536 1536 1536 1535 1535 1535 1535 1534 1534 1533 1533 1532 1532 1531 1531 1530 1530 1529
1514 1515 1515 1516 1518 1519 1520 1521 1521 1522 1522 1522 1521 1521 1522 1523 1525 1526 1528 1529 1530 1531 1533 1534 1534 1535 1535 1536 1537 1537 1537 1538 1538 1538 1537 1537 1538 1538 1539 1539 1539 1539 1538 1538 1537 1537 1537 1536 1535 1535 1535 1535 1535 1534 1534 1534 1533 1533 1532 1532 1531 1531 1530 1530 1530 1529 1528 1528 1527
1512 1513 1514 1515 1517 1518 1519 1519 1520 1520 1520 1520 1520 1520 1521 1523 1524 1525 1526 1527 1529 1530 1531 1532 1533 1533 1534 1535 1535 1536 1536 1536 1536 1536 1535 1536 1536 1536 1537 1537 1537 1537 1536 1536 1536 1535 1535 1535 1534 1534 1533 1533 1533 1532 1532 1532 1532 1531 1531 1530 1530 1529 1529 1528 1528 1527 1526 1526 1525
1510 1511 1512 1513 1515 1516 1517 1517 1518 1519 1520 1520 1520 1520 1521 1523 1524 1525 1525 1526 1527 1529 1530 1530 1531 1532 1533 1533 1534 1535 1535 1535 1535 1534 1534 1534 1535 1535 1535 1535 1535 1535 1535 1535 1534 1534 1533 1533 1532 1532 1532 1531 1531 1531 1530 1530 1530 1530 1530 1529 1528 1527 1527 1526 1526 1525 1525 1524 1524
1509 1510 1511 1512 1514 1515 1515 1516 1517 1518 1519 1519 1520 1520 1521 1522 1523 1524 1525 1525 1527 1528 1529 1529 1530 1531 1532 1532 1533 1533 1533 1533 1533 1533 1533 1533 1533 1533 1534 1534 1534 1534 1533 1533 1532 1532 1532 1531 1531 1530 1530 1530 1530 1529 1529 1528 1528 1528 1528 1528 1527 1526 1525 1525 1524 1524 1523 1523 1522
1507 1508 1510 1511 1512 1513 1514 1515 1516 1517 1518 1518 1519 1520 1520 1521 1522 1523 1524 1525 1526 1526 1527 1528 1529 1530 1531 1531 1531 1532 1532 1531 1531 1531 1531 1531 1532 1532 1532 1532 1532 1532 1531 1531 1530 1530 1530 1530 1529 1529 1529 1528 1528 1527 1527 1527 1526 1526 1526 1525 1525 1524 1524 1523 1522 1522 1521 1521 1520
1506 1507 1508 1509 1510 1511 1512 1514 1515 1516 1517 1517 1518 1518 1519 1520 1521 1522 1523 1524 1525 1525 1526 1527 1528 1529 1530 1530 1530 1530 1530 1530 1530 1530 1530 1530 1530 1531 1531 1530 1530 1530 1529 1529 1529 1529 1528 1528 1528 1527 1527 1527 1526 1526 1525 1525 1525 1525 1524 1524 1523 1523 1522 1521 1521 1520 1520 1519 1519
1504 1505 1505 1506 1508 1510 1511 1513 1514 1515 1515 1516 1517 1517 1518 1519 1520 1521 1522 1523 1524 1525 1525 1526 1527 1528 1528 1529 1529 1529 1529 1529 1529 1529 1529 1529 1529 1529 1529 1529 1528 1528 1527 1527 1527 1527 1526 1526 1526 1525 1525 1525 1525 1525 1524 1523 1523 1522 1522 1522 1521 1521 1520 1520 1519 1519 1518 1517 1517
1503 1503 1504 1505 1507 1509 1510 1511 1513 1514 1514 1515 1516 1517 1518 1518 1520 1520 1521 1522 1523 1524 1525 1525 1526 1526 1527 1527 1527 1527 1527 1527 1528 1528 1528 1528 1528 1528 1527 1527 1527 1526 1525 1525 1525 1525 1525 1525 1524 1524 1524 1524 1523 1523 1522 1522 1521 1520 1520 1520 1519 1519 1518 1518 1518 1517 1517 1516 1515
1501 1502 1503 1504 1505 1507 1508 1510 1511 1512 1513 1514 1515 1516 1516 1517 1519 1520 1520 1521 1522 1523 1524 1524 1525 1525 1525 1525 1525 1526 1526 1526 1527 1527 1526 1526 1526 1526 1526 1525 1525 1524 1524 1524 1524 1524 1523 1523 1522 1522 1522 1521 1521 1521 1521 1520 1520 1519 1519 1518 1517 1517 1517 1516 1516 1516 1515 1515 1514
1500 1501 1502 1504 1505 1505 1506 1508 1509 1511 1512 1513 1514 1515 1515 1517 1518 1519 1520 1520 1521 1522 1523 1523 1524 1524 1524 1524 1524 1525 1525 1525 1525 1525 1525 1525 1525 1525 1524 1524 1524 1523 1522 1522 1522 1522 1521 1521 1520 1520 1520 1520 1520 1519 1519 1519 1519 1518 1517 1516 1516 1515 1515 1515 1514 1514 1514 1513 1513
1500 1501 1502 1503 1504 1505 1505 1506 1508 1509 1510 1511 1512 1514 1515 1516 1517 1518 1519 1520 1521 1521 1521 1522 1522 1522 1523 1523 1523 1524 1524 1524 1524 1524 1524 1524 1523 1523 1523 1522 1522 1521 1520 1520 1520 1520 1520 1519 1519 1519 1518 1518 1517 1517 1517 1517 1517 1516 1515 1515 1514 1514 1513 1513 1513 1512 1512 1512 1511
1499 1500 1501 1502 1503 1504 1505 1505 1506 1507 1509 1510 1511 1513 1514 1515 1516 1517 1518 1519 1520 1520 1520 1521 1521 1521 1521 1522 1522 1523 1523 1523 1523 1522 1522 1522 1522 1521 1521 1521 1520 1520 1519 1518 1518 1518 1518 1517 1517 1517 1516 1516 1515 1515 1515 1515 1515 1515 1514 1513 1513 1512 1512 1511 1511 1510 1510 1510 1510
1499 1500 1501 1502 1502 1503 1503 1504 1505 1506 1508 1510 1511 1512 1513 1515 1516 1517 1518 1518 1519 1519 1519 1520 1520 1520 1520 1521 1521 1521 1521 1521 1521 1521 1521 1520 1520 1520 1519 1519 1519 1518 1517 1516 1517 1516 1516 1516 1515 1515 1515 1514 1514 1514 1513 1513 1513 1513 1512 1511 1511 1510 1510 1510 1509 1509 1508 1508 1508
1498 1499 1500 1501 1501 1502 1502 1503 1504 1506 1508 1509 1510 1512 1513 1514 1515 1516 1517 1517 1518 1518 1518 1519 1519 1520 1520 1520 1520 1520 1520 1520 1520 1520 1519 1519 1519 1518 1518 1517 1517 1517 1515 1515 1515 1515 1515 1514 1514 1513 1513 1512 1512 1512 1511 1511 1511 1510 1510 1510 1509 1509 1508 1508 1507 1507 1506 1506 1505
1497 1498 1499 1500 1500 1501 1501 1502 1504 1506 1507 1509 1510 1511 1512 1514 1515 1515 1515 1516 1517 1517 1518 1518 1518 1519 1519 1519 1519 1519 1519 1519 1518 1518 1518 1517 1517 1516 1516 1516 1516 1515 1514 1513 1513 1513 1513 1512 1512 1511 1511 1511 1510 1510 1510 1509 1509 1509 1508 1508 1507 1507 1506 1505 1505 1505 1504 1504 1504
1497 1498 1498 1499 1499 1500 1501 1502 1504 1505 1507 1508 1510 1511 1512 1513 1514 1514 1515 1515 1516 1516 1517 1517 1518 1518 1518 1518 1518 1518 1517 1517 1517 1516 1516 1516 1515 1515 1515 1515 1515 1514 1513 1512 1512 1511 1511 1510 1510 1510 1509 1509 1509 1508 1508 1507 1507 1506 1506 1506 1505 1505 1504 1503 1503 1502 1502 1501 1501
1496 1497 1497 1498 1499 1500 1500 1502 1504 1505 1507 1508 1510 1511 1512 1513 1513 1513 1514 1515 1515 1515 1516 1516 1517 1517 1517 1517 1517 1516 1516 1516 1515 1515 1514 1514 1514 1513 1513 1513 1513 1513 1511 1510 1510 1510 1509 1509 1508 1508 1508 1507 1507 1506 1506 1505 1505 1505 1504 1504 1503 1503 1502 1501 1501 1500 1500 1499 1499
1495 1496 1497 1497 1498 1499 1500 1502 1504 1505 1507 1508 1510 1510 1511 1512 1512 1512 1513 1514 1514 1515 1515 1516 1516 1516 1516 1515 1515 1515 1515 1514 1514 1513 1513 1512 1512 1512 1511 1511 1511 1511 1510 1509 1508 1508 1508 1507 1507 1506 1506 1505 1505 1505 1504 1504 1503 1503 1502 1502 1501 1500 1500 1500 1499 1498 1497 1497 1496
1495 1495 1496 1497 1498 1499 1501 1503 1504 1506 1507 1508 1509 1510 1510 1511 1511 1512 1512 1513 1514 1514 1515 1515 1515 1515 1514 1514 1514 1513 1513 1512 1512 1511 1511 1510 1510 1510 1510 1510 1509 1509 1509 1507 1506 1506 1506 1505 1505 1504 1504 1504 1503 1503 1502 1502 1501 1500 1500 1500 1499 1499 1498 1498 1497 1496 1495 1494 1494
1494 1495 1496 1497 1498 1500 1502 1503 1505 1506 1507 1508 1509 1509 1510 1510 1510 1511 1512 1513 1513 1513 1513 1513 1513 1513 1513 1512 1512 1512 1511 1511 1510 1510 1509 1509 1509 1508 1508 1507 1507 1507 1507 1505 1505 1504 1504 1503 1503 1502 1502 1502 1501 1501 1500 1500 1499 1499 1498 1497 1497 1496 1496 1495 1495 1494 1493 1492 1491
1494 1495 1496 1497 1499 1500 1502 1504 1505 1505 1506 1507 1508 1509 1509 1509 1510 1510 1511 1512 1512 1512 1512 1512 1512 1512 1511 1511 1510 1510 1510 1509 1509 1508 1508 1507 1507 1506 1506 1505 1505 1505 1505 1504 1503 1502 1501 1501 1501 1500 1500 1500 1500 1499 1499 1498 1497 1496 1496 1495 1495 1495 1494 1493 1492 1491 1490 1490 1489
Wind_Speed
25 25 23 21 19 19 19 20 20 20 21 21 22 24 25 26 26 26 25 24 23 22 21 20 18 17 16 15 13 10 8 6 5 4 3 3 4 5 6 6 6 6 6 6 6 6 5 5 6 7 7 7 7 7 8 9 8 7 5 4 3 3 3 3 3 4 4 5 5
26 25 24 21 19 19 19 20 21 21 22 22 23 24 25 25 24 24 23 23 23 22 21 20 19 18 17 15 13 11 9 7 6 5 4 3 4 5 5 5 5 5 5 5 5 4 4 5 6 6 7 7 7 8 8 9 9 7 4 3 3 3 4 4 4 4 5 5 6
26 26 24 22 20 19 20 21 22 22 22 23 24 24 24 23 23 22 22 22 22 22 21 20 20 19 17 16 13 11 9 8 7 5 4 4 4 4 5 4 4 5 5 5 5 5 5 6 7 7 7 7 7 7 7 9 9 7 4 3 3 4 4 4 4 5 5 6 6
27 26 25 22 20 20 21 22 22 22 23 24 24 24 23 22 21 21 21 21 22 22 22 22 21 20 18 16 14 12 10 8 7 6 5 4 4 4 4 4 4 4 5 5 5 6 6 7 7 8 8 7 6 5 5 7 8 7 5 4 4 5 5 5 5 6 7 7 7
27 26 25 22 21 21 22 23 23 23 23 24 24 23 22 21 21 21 21 22 23 23 23 22 22 20 18 16 14 12 10 9 8 6 5 4 4 4 4 3 3 4 5 6 6 7 8 8 8 8 7 6 5 4 5 6 7 6 5 5 5 6 6 6 6 7 7 8 8
27 26 25 22 21 22 23 24 24 23 23 24 23 22 22 21 21 22 22 23 23 24 23 23 22 20 19 17 15 12 11 9 8 7 5 5 4 4 3 3 3 4 5 6 7 8 9 9 8 7 7 6 6 6 6 7 6 6 5 5 6 7 7 6 6 7 8 8 8
27 26 24 22 22 23 24 24 24 24 24 23 22 21 21 21 21 22 22 23 24 24 24 24 22 21 19 17 14 12 11 9 8 7 6 6 5 4 3 3 3 4 6 8 9 9 9 8 7 7 7 7 7 7 8 8 7 6 6 6 7 7 8 8 9 10 10 10 10
26 26 24 23 23 23 25 25 25 25 24 23 22 21 21 21 21 22 22 23 24 25 25 24 23 21 19 16 14 12 10 9 8 8 7 6 5 5 4 4 4 6 7 8 9 9 9 8 7 7 7 8 8 8 8 9 8 7 6 7 9 10 12 12 12 12 12 12 12
27 26 25 24 24 24 25 26 26 25 24 23 22 22 22 21 21 22 23 24 25 25 25 24 23 21 18 15 13 11 10 9 9 8 8 7 6 5 5 5 6 7 8 9 9 9 9 8 7 7 7 7 7 7 8 9 9 9 8 8 10 12 13 13 13 12 11 11 12
27 27 26 25 25 25 26 26 26 25 24 23 22 22 22 22 22 23 23 24 25 25 25 24 23 20 17 15 13 11 10 10 10 9 8 7 6 5 5 6 7 8 8 9 9 8 8 8 7 7 7 6 7 8 9 11 11 10 9 9 10 11 12 11 10 9 9 10 13
27 28 27 27 26 26 27 27 26 25 24 23 23 22 22 22 22 23 24 25 25 26 26 24 22 20 17 15 13 12 12 11 10 9 8 7 6 6 6 7 8 8 8 9 8 8 8 8 7 7 7 7 8 9 10 11 11 11 10 10 10 10 9 9 9 9 9 10 13
28 28 28 27 27 27 27 28 27 25 24 23 22 22 22 23 23 23 24 25 26 26 25 24 22 20 17 16 14 13 13 12 11 9 8 7 6 7 7 8 8 8 8 8 8 8 8 8 7 7 8 8 9 9 10 11 11 11 11 10 10 9 9 9 10 10 11 12 15
28 29 29 28 28 28 28 27 25 24 22 22 22 23 23 23 23 23 24 25 26 25 25 23 21 19 18 16 15 14 13 12 10 9 7 7 7 7 8 8 8 8 8 9 9 9 8 8 8 8 8 9 10 10 11 11 11 11 11 11 11 10 10 11 12 14 15 16 18
29 30 30 29 28 27 26 24 23 22 21 21 22 23 23 23 23 23 24 25 25 25 24 23 21 19 18 16 15 14 13 11 9 8 7 7 7 8 9 9 8 8 8 9 9 9 9 9 8 8 9 10 11 12 12 13 12 11 11 12 12 12 13 14 15 17 18 18 19
30 31 31 29 27 25 23 22 21 21 20 20 21 22 22 22 23 24 25 25 25 25 24 23 21 19 18 17 16 14 13 11 9 8 7 8 9 10 9 9 8 8 9 10 10 10 10 9 9 9 10 11 12 12 13 13 13 13 13 13 14 14 14 15 16 16 17 17 18
31 31 30 27 24 23 22 21 20 19 18 18 19 20 21 22 24 25 26 26 25 25 24 22 20 19 18 17 17 15 13 11 9 8 8 9 10 10 10 9 9 9 10 11 11 11 11 10 10 10 10 11 12 13 14 14 15 14 14 14 15 15 15 16 15 15 16 17 18
31 30 27 25 23 22 21 20 18 17 15 14 16 19 22 24 26 26 26 26 26 25 23 21 20 20 19 19 17 15 13 11 10 9 10 11 11 10 9 9 9 10 11 11 12 12 12 12 12 12 12 12 13 14 15 16 16 16 16 16 16 16 16 16 16 17 18 19 19
29 27 25 23 22 21 20 18 16 14 13 14 17 20 24 26 27 27 26 26 26 24 23 21 21 21 20 19 17 15 14 12 11 12 12 12 10 9 9 9 10 11 11 12 12 12 13 13 13 13 13 14 14 15 16 17 17 17 17 16 16 17 17 17 18 19 19 19 19
27 25 23 22 21 21 19 18 16 15 17 18 20 23 26 28 27 26 25 25 25 24 23 23 23 22 20 18 16 15 13 12 13 14 13 11 9 9 10 10 11 12 12 12 12 13 13 14 14 14 15 15 15 16 17 17 18 18 17 17 17 17 18 19 19 19 19 18 18
26 25 24 23 21 20 19 17 17 19 20 21 23 24 26 26 26 25 25 25 25 24 24 24 23 21 19 17 16 14 13 14 14 13 11 10 9 10 11 11 12 12 13 13 13 13 14 15 15 15 16 16 16 17 18 18 18 18 17 17 18 19 19 20 19 19 18 18 18
25 25 24 23 22 21 19 19 21 22 23 23 23 24 24 25 25 25 26 26 26 25 24 24 23 21 19 17 14 13 14 15 14 12 10 9 10 10 11 12 13 13 13 13 14 14 14 15 16 17 17 17 17 18 19 19 18 18 18 18 19 19 20 20 19 18 18 17 17
26 25 24 23 22 21 21 23 24 24 24 23 23 23 24 24 25 26 26 26 26 25 25 24 22 20 17 15 14 14 15 14 13 11 10 9 10 11 12 13 13 14 14 14 14 15 15 16 17 17 18 18 18 19 19 18 18 18 18 19 19 20 20 19 19 18 17 17 17
26 25 24 23 23 24 25 26 26 25 24 24 23 23 24 25 26 27 27 27 26 25 24 23 21 18 15 13 14 14 14 13 11 10 9 10 10 12 13 14 14 14 15 15 15 16 16 17 18 18 18 19 19 19 19 18 18 17 17 17 19 19 20 19 18 18 17 17 17
27 26 25 24 24 25 26 27 26 25 24 23 23 24 25 27 27 27 27 26 26 25 24 22 19 16 13 13 13 13 13 12 10 10 10 10 11 13 14 14 15 15 16 16 16 16 17 18 18 19 19 19 19 19 19 19 18 17 16 17 18 19 19 19 18 18 18 17 17
28 28 27 25 24 25 26 27 26 24 23 23 24 26 27 28 28 27 26 26 26 25 23 20 16 13 12 13 13 12 12 11 10 10 11 12 13 14 15 15 16 16 17 17 17 17 17 18 18 19 19 19 19 19 19 20 19 18 18 18 18 19 19 19 19 18 18 17 17
28 28 27 26 26 27 27 26 25 23 23 24 26 27 28 28 27 26 26 26 25 23 21 17 14 12 12 12 12 11 11 10 10 11 12 13 14 15 16 16 17 17 17 17 17 17 18 18 18 19 19 19 19 19 20 20 20 19 19 19 19 19 18 18 18 18 18 17 17
28 28 27 27 27 27 27 26 24 23 24 26 28 28 27 26 26 26 26 26 24 22 18 15 12 12 12 11 11 11 10 10 11 12 13 14 15 16 17 17 18 18 18 18 18 18 18 19 19 19 19 19 19 19 19 19 20 20 20 19 19 19 18 18 17 17 17 17 16
29 29 29 27 27 26 26 25 23 24 25 27 28 28 27 26 26 27 26 25 22 19 16 13 12 12 11 11 11 10 11 11 12 14 15 16 16 16 17 17 18 19 19 18 18 19 19 19 20 20 20 19 19 20 20 19 20 20 20 19 19 19 18 18 16 16 15 15 15
28 29 28 27 25 24 23 23 23 25 27 29 28 27 27 26 27 27 26 23 20 17 14 13 12 12 11 11 11 10 11 12 14 15 16 16 16 16 17 17 19 19 20 19 19 19 19 20 20 20 20 20 20 20 19 18 18 19 19 19 19 18 18 17 16 15 14 14 14
27 27 26 24 23 22 21 22 24 27 29 30 29 28 27 27 27 26 24 21 18 15 13 13 12 12 12 11 11 11 12 14 15 16 16 16 16 17 17 18 19 20 20 20 20 20 20 20 20 20 20 20 20 19 19 18 17 17 18 19 19 18 17 17 16 15 15 14 14
25 25 24 22 20 20 21 24 26 29 30 30 29 27 27 27 26 24 22 19 16 14 14 13 12 12 11 11 11 12 13 15 16 16 16 16 16 17 18 18 19 20 21 21 20 20 20 21 21 21 20 20 19 19 19 18 17 17 17 18 18 17 17 17 16 16 15 15 14
23 22 21 20 20 21 23 26 29 31 31 30 28 27 26 26 24 22 20 17 15 14 14 13 12 12 12 12 12 14 15 16 17 17 16 16 17 18 18 19 19 20 21 22 21 21 21 21 21 21 20 20 19 19 18 18 18 17 17 18 17 17 17 17 17 17 16 16 15
20 20 20 20 21 23 26 28 30 31 30 28 27 26 25 24 22 20 18 16 15 14 14 13 13 13 13 13 14 15 17 17 17 17 17 17 18 18 19 19 19 20 22 22 22 21 21 21 21 21 20 19 19 18 18 18 18 18 18 18 18 18 18 18 18 18 17 17 17
18 18 19 20 22 25 27 29 30 29 28 26 25 25 23 22 20 18 16 15 14 14 13 14 14 14 14 14 15 17 18 18 18 18 18 18 18 19 19 19 18 20 22 23 22 22 21 21 21 20 20 19 19 19 18 18 19 19 20 20 19 19 19 19 20 19 19 18 18
17 18 19 21 23 25 27 28 28 27 26 25 24 23 21 19 17 16 15 14 14 14 14 14 15 15 15 15 17 18 19 19 19 18 18 19 19 19 19 19 19 20 22 23 23 22 22 21 21 20 20 19 19 19 19 19 19 20 20 20 20 20 21 21 21 21 20 20 19
16 18 19 22 24 25 26 27 27 26 25 24 22 20 18 17 15 15 14 14 14 14 15 15 15 15 16 17 18 19 19 19 19 19 19 19 19 19 20 20 19 20 22 23 23 22 22 21 21 20 20 20 20 20 20 20 20 20 21 21 21 21 22 22 22 22 21 21 20
16 18 20 22 23 25 25 25 25 24 23 21 19 17 16 15 15 15 14 14 15 15 16 16 16 16 17 18 19 20 20 19 19 19 19 20 19 20 20 20 19 20 22 24 24 23 22 21 21 20 20 20 21 20 20 20 21 21 21 21 22 22 22 23 23 23 23 22 22
16 18 20 22 23 23 24 23 23 22 20 18 16 15 15 15 15 15 15 15 15 16 16 15 16 17 18 19 20 20 20 19 19 19 20 20 20 20 21 21 20 20 22 24 24 23 22 21 21 21 21 21 21 21 21 21 22 22 22 22 22 22 22 23 24 24 24 24 23
16 17 19 20 21 21 21 21 21 19 17 15 15 14 15 15 15 15 15 15 15 15 15 16 17 18 19 20 20 20 20 19 19 20 20 21 21 21 21 22 21 21 21 23 24 24 23 22 21 21 21 22 22 22 22 22 23 23 23 23 23 23 23 24 24 25 26 25 24
15 16 17 17 18 18 18 19 18 16 15 14 14 15 15 16 15 15 14 15 15 15 16 17 18 19 20 20 20 19 19 19 20 20 21 21 22 22 22 23 23 22 22 23 25 24 23 22 21 21 22 22 22 23 23 23 24 25 25 24 24 24 24 25 26 26 27 27 26
13 13 13 14 15 16 17 17 16 15 14 14 14 15 16 16 15 15 15 15 16 16 17 18 19 20 20 20 20 19 19 20 20 21 21 22 23 23 23 24 24 23 23 24 25 25 24 22 22 22 22 23 23 24 24 25 25 25 26 26 26 25 25 26 27 28 28 28 28
Wind_Direction
226 225 225 225 226 229 232 231 227 222 215 209 207 211 217 222 225 226 226 225 224 224 225 227 226 225 224 222 219 217 218 225 235 246 267 296 317 326 328 330 334 339 343 345 351 356 359 354 349 349 350 353 352 349 348 351 354 355 354 349 335 325 321 318 304 297 298 299 298
227 226 226 226 227 231 233 232 228 223 217 211 211 215 220 224 226 227 227 225 224 224 226 226 226 225 223 221 219 219 221 228 236 243 258 282 305 317 322 325 329 336 341 344 347 347 342 338 336 337 339 342 344 344 342 344 350 351 346 325 305 306 312 309 300 295 295 296 296
227 226 226 225 226 229 231 231 229 224 218 214 215 218 222 225 226 227 227 225 224 225 226 226 226 226 224 222 220 220 223 229 233 237 248 269 292 305 313 318 325 331 336 337 335 330 327 326 327 329 333 337 342 339 335 337 343 346 337 295 284 294 301 300 296 294 295 297 296
228 227 225 225 225 227 228 229 227 223 219 216 218 220 223 224 225 226 226 226 225 226 226 226 226 226 225 222 221 221 224 227 228 231 240 257 275 290 303 314 319 325 327 327 324 320 319 320 322 326 332 337 340 332 322 325 332 333 323 293 292 296 297 293 291 293 298 299 298
228 227 226 225 225 226 227 227 225 222 219 218 219 221 222 223 224 224 225 225 225 226 226 227 227 226 225 222 221 221 222 222 221 224 233 248 263 279 294 305 310 315 318 319 315 313 313 315 319 324 330 332 330 318 308 309 316 314 302 292 295 300 299 290 288 293 299 301 298
229 227 226 225 225 226 227 226 224 222 219 219 220 221 222 222 223 224 224 225 225 225 226 226 227 226 224 221 219 219 220 219 219 221 230 244 259 272 284 294 299 306 309 310 309 308 308 311 316 320 322 322 319 311 306 308 306 295 281 278 285 296 299 287 287 293 298 299 297
229 227 227 227 227 226 226 225 223 221 219 219 220 221 221 222 223 224 225 225 225 224 224 225 225 223 222 219 218 218 219 219 219 223 233 246 259 269 278 283 287 297 305 307 305 304 304 308 311 312 313 316 314 309 308 310 306 289 271 270 276 285 291 291 293 296 299 300 300
228 227 228 230 229 227 226 225 223 220 219 219 219 220 221 222 224 225 225 225 225 224 224 224 223 222 221 220 219 220 221 221 222 227 237 249 259 270 279 284 292 300 304 303 301 299 301 304 306 304 305 311 308 302 302 306 303 291 275 268 272 283 294 299 301 302 303 303 304
226 226 228 230 230 228 226 225 223 221 219 219 219 220 221 223 224 225 225 225 225 225 225 224 223 222 221 220 221 223 222 223 226 232 241 251 259 268 280 290 295 298 300 299 297 296 297 300 302 298 296 300 292 286 289 298 298 292 282 270 271 283 294 299 302 302 301 299 304
225 225 227 229 229 227 225 225 223 221 220 220 221 222 223 224 225 226 226 226 226 226 225 224 223 221 219 220 222 223 224 225 229 235 244 252 260 270 280 288 293 295 295 295 295 294 295 296 296 290 282 281 275 274 282 295 295 289 280 272 272 280 288 290 292 292 291 291 299
224 225 227 228 227 225 224 224 223 221 221 221 222 224 225 226 226 226 226 226 226 226 226 225 223 221 220 221 223 225 226 227 230 236 244 253 263 273 281 288 292 293 293 293 294 293 292 292 286 278 272 271 268 270 279 290 290 285 277 270 270 273 274 272 275 278 282 287 296
222 223 225 226 225 223 222 223 223 222 221 222 224 226 228 228 228 227 227 227 227 226 225 224 223 222 221 222 224 226 227 227 229 234 243 254 265 275 283 287 291 293 293 294 294 293 290 287 276 267 264 264 265 267 274 283 283 279 271 262 260 259 259 262 269 277 283 288 297
220 221 223 225 224 223 223 223 223 223 223 225 227 230 231 231 230 229 228 228 227 226 224 223 222 221 222 223 225 226 225 224 227 234 244 257 269 278 283 286 290 291 292 292 293 292 288 282 271 262 258 256 260 265 271 278 277 268 258 254 256 258 259 264 274 284 290 295 300
218 220 223 224 225 224 224 224 224 225 227 229 231 234 235 235 233 230 229 228 226 224 221 220 220 220 221 223 224 224 222 222 226 235 248 263 274 279 282 285 288 288 287 288 290 289 286 281 272 263 256 253 257 264 272 277 272 262 254 253 258 264 268 273 282 289 294 297 300
219 221 224 226 225 225 224 223 224 226 229 233 236 238 239 237 234 231 229 227 224 221 219 218 218 219 221 223 223 222 220 221 226 237 252 267 275 279 280 282 283 281 282 285 288 288 285 281 272 263 257 255 257 262 269 275 272 266 260 258 261 267 273 277 283 287 291 295 299
220 223 225 226 225 224 222 222 223 226 230 236 241 244 242 238 234 232 229 224 220 218 217 218 219 221 224 225 223 220 218 219 226 241 259 271 277 279 278 277 274 274 278 283 287 288 287 283 277 269 263 260 258 260 265 270 272 269 265 263 265 269 273 278 278 281 286 293 297
223 225 226 225 223 222 220 219 220 223 230 241 248 249 244 237 234 232 227 221 218 217 217 219 223 226 227 224 220 216 215 219 233 253 268 276 278 277 273 269 268 271 276 282 286 288 287 285 284 281 276 271 267 265 267 269 270 270 269 268 269 270 273 276 277 282 287 291 293
226 227 226 224 221 219 216 215 216 224 236 246 249 247 243 238 235 231 225 220 218 217 219 224 229 230 227 222 217 214 217 229 249 266 275 276 272 265 260 260 264 271 276 280 283 284 285 285 285 285 284 281 278 274 271 270 271 271 271 270 269 270 271 274 279 283 287 290 290
228 227 225 222 218 215 212 213 222 237 247 248 242 239 237 237 233 228 223 220 219 221 225 229 231 229 224 219 216 219 230 249 266 274 275 268 255 247 248 254 263 271 276 279 280 281 282 284 284 285 285 284 282 278 275 273 273 272 271 269 267 268 271 274 279 283 286 287 288
228 225 221 218 215 211 212 220 235 245 247 242 237 235 234 233 229 224 220 219 221 224 227 229 228 224 220 217 220 231 250 266 272 272 266 254 244 241 245 251 263 271 276 280 280 280 280 281 283 284 285 285 283 280 278 276 273 270 268 266 266 268 271 276 280 283 285 286 287
228 223 218 213 210 210 216 228 240 243 241 236 235 234 233 229 223 219 217 218 220 223 225 225 223 219 216 218 229 248 264 270 269 264 256 248 246 247 251 256 265 273 278 282 283 281 279 279 282 285 286 285 283 281 279 276 272 268 265 264 266 268 272 277 280 282 284 285 286
227 225 222 218 213 216 226 235 238 238 236 236 236 234 229 224 218 214 214 216 219 221 222 220 217 215 217 227 246 261 268 266 264 261 257 254 254 256 260 265 271 277 281 283 284 283 281 281 283 285 286 285 283 281 278 274 269 265 263 263 265 269 273 277 280 281 282 283 285
228 230 230 226 223 228 235 235 233 233 235 237 235 231 224 217 211 210 212 216 219 219 218 215 213 215 224 242 259 265 264 261 262 263 263 263 263 264 266 270 276 280 282 283 283 283 283 283 284 284 285 284 283 280 277 271 265 261 258 259 264 270 274 278 279 280 281 282 283
237 240 242 237 232 229 228 228 230 234 236 235 230 223 216 210 208 209 213 217 218 217 214 212 212 220 236 254 263 262 259 259 261 264 267 268 267 268 270 274 278 281 283 284 284 283 283 283 283 284 284 283 281 278 274 269 263 257 254 255 262 269 274 276 278 279 279 280 281
243 246 247 243 230 221 221 227 233 238 237 231 222 215 210 208 209 212 215 216 215 213 211 210 216 230 249 260 260 258 257 260 263 266 268 268 268 269 272 275 278 281 283 285 285 284 282 282 282 283 283 282 279 275 271 267 263 258 256 258 262 267 271 273 275 277 278 278 279
244 246 245 240 229 224 228 235 240 240 234 224 216 210 208 210 213 216 217 215 212 210 210 213 225 243 256 259 256 255 257 261 265 267 267 267 269 270 273 276 278 281 283 285 285 284 282 281 281 281 280 278 274 270 268 266 263 260 259 260 263 265 266 268 271 274 277 277 277
244 244 242 240 240 240 242 244 243 237 227 217 212 210 211 214 217 217 215 213 210 209 211 220 237 252 258 256 254 254 256 259 262 265 267 269 271 272 274 276 279 282 284 285 285 283 282 281 281 280 279 276 270 265 262 261 261 261 260 261 262 264 265 267 266 268 271 275 276
243 243 243 244 248 250 249 245 239 229 220 213 211 212 216 218 218 216 213 211 209 210 216 230 246 255 256 252 251 251 254 257 262 267 271 273 273 274 275 277 280 282 284 284 284 283 282 281 280 279 278 274 269 264 260 258 259 261 262 262 263 265 267 267 264 260 260 266 271
241 242 244 249 252 251 246 238 230 222 215 212 213 216 218 219 216 213 211 210 210 215 226 241 250 252 249 246 246 249 253 259 266 272 275 276 275 274 276 278 280 282 283 284 283 282 281 281 280 279 277 274 269 263 259 255 255 259 262 264 265 266 265 263 259 254 250 252 257
241 242 244 248 249 245 238 230 222 217 214 214 215 218 218 216 214 212 211 212 215 223 236 246 249 247 244 243 244 248 256 266 274 278 279 277 276 276 278 280 280 281 282 283 283 282 281 280 280 279 277 273 269 263 257 252 251 253 259 263 264 264 261 258 255 249 245 245 245
243 243 243 245 242 236 229 222 217 215 215 216 217 218 216 214 213 212 213 215 221 231 241 246 246 243 241 242 245 253 265 275 281 282 281 278 278 279 280 280 280 280 281 283 283 282 281 280 280 279 277 273 268 263 257 253 250 251 254 257 259 258 257 254 250 247 245 244 244
242 242 241 238 233 227 221 217 215 215 216 217 217 216 214 213 213 214 217 221 228 237 242 243 242 240 239 241 249 261 273 281 285 285 283 281 281 280 281 281 279 279 280 282 283 282 281 281 280 278 276 272 267 262 258 255 253 252 252 253 254 253 252 250 249 248 247 246 245
239 239 236 231 224 219 216 215 216 216 217 217 216 214 213 213 214 217 221 227 235 240 243 242 240 237 237 243 254 268 278 285 287 287 285 283 282 281 281 281 278 277 279 282 283 283 282 281 280 278 275 270 266 261 258 256 256 255 255 254 254 253 252 251 251 250 249 248 248
236 235 230 224 219 217 216 217 218 218 217 215 214 213 213 214 216 221 227 234 239 242 243 241 238 237 240 248 261 273 282 287 288 287 285 283 281 281 281 281 275 275 279 282 283 283 282 281 280 277 273 269 264 260 258 256 256 257 258 258 257 255 254 254 255 254 253 251 251
234 229 223 219 218 218 219 219 219 217 215 213 211 212 213 216 221 227 234 239 241 241 239 237 236 238 244 256 268 278 284 288 288 287 284 282 281 280 280 280 275 274 278 281 283 283 282 281 279 276 271 266 262 259 257 256 257 258 260 260 259 258 257 258 258 256 254 253 253
230 224 220 218 220 221 221 220 218 215 212 210 210 212 215 220 226 233 237 239 239 238 237 235 236 241 251 264 275 282 286 288 287 286 283 281 280 280 280 280 276 274 276 280 283 283 282 280 278 274 269 264 261 258 258 257 258 259 261 261 260 259 259 260 259 256 254 253 254
227 223 221 221 222 222 221 219 215 211 209 209 211 214 218 224 229 233 235 235 235 235 235 236 241 250 262 273 281 285 287 288 287 285 283 282 280 279 280 280 276 273 275 279 282 283 282 279 276 272 267 263 260 259 258 258 259 260 261 261 261 260 260 260 259 257 255 254 255
224 223 224 224 224 223 221 216 211 207 207 209 212 217 222 226 230 232 233 232 231 232 235 240 250 261 272 280 285 288 289 288 287 284 283 281 281 280 280 281 277 274 274 278 281 282 281 278 274 270 266 263 260 259 258 258 259 261 262 262 262 262 261 260 259 259 258 257 257
225 226 227 227 226 223 217 210 206 205 207 211 214 218 222 225 229 231 231 229 229 233 239 249 261 271 279 285 288 290 290 289 286 283 281 280 280 280 280 280 279 275 273 276 280 281 280 276 272 269 265 263 261 259 258 258 260 261 263 263 264 263 262 260 260 260 260 260 260
229 230 231 228 224 217 208 202 202 204 209 213 215 217 220 224 228 229 228 227 230 237 247 259 271 280 285 289 290 291 290 287 285 283 282 281 281 280 280 280 280 278 275 276 279 280 279 276 272 267 264 262 260 258 258 258 259 261 263 264 264 264 264 263 262 262 263 263 264
233 232 228 219 210 201 197 197 201 205 210 212 213 216 220 224 226 226 226 229 235 245 257 269 278 285 289 291 291 290 288 284 282 282 282 283 283 282 282 282 282 281 279 277 278 279 278 275 271 267 263 260 259 258 257 258 258 259 261 263 265 265 266 265 265 265 266 266 266